#timestamp,LO_Frequency,Hit,StdDev 
1608526895.2,286046966.0,P
1608526915.0,286046963.2,P
1608526915.9,286046963.2,P
1608526935.7,286046964.0,Y
1608526955.6,286046998.4,P
1608526975.4,286046999.6,N
1608526995.3,286046995.6,N
1608527015.1,286046994.3,N
1608527035.8,286046992.3,N
1608527055.7,286046994.7,N
1608527075.5,286046994.4,N
1608527095.4,286046991.8,N
1608527115.2,286046990.4,N
1608527135.0,286046990.9,N
1608527135.9,286046990.9,N
1608527155.8,286046993.1,N
1608527175.6,286046992.4,N
1608527195.4,286046993.1,N
1608527215.3,286046990.7,N
1608527235.1,286046992.6,N
1608527255.9,286046992.9,N
1608527275.7,286046990.1,N
1608527295.5,286046992.6,N
1608527315.4,286046992.4,N
1608527335.2,286046994.5,N
1608527355.0,286046992.0,N
1608527355.9,286046992.0,N
1608527375.8,286046990.5,N
1608527395.6,286046990.3,N
1608527415.5,286046990.2,N
1608527435.3,286046991.9,N
1608527455.1,286046991.0,N
1608527475.9,286046987.4,N
1608527495.7,286046985.4,N
1608527515.5,286046983.9,Y
1608527535.4,286046994.8,P
1608527555.2,286046993.6,P
1608527575.1,286046994.2,P
1608527576.0,286046994.2,Y
1608527595.8,286046998.4,P
1608527615.6,286046997.0,N
1608527635.5,286046996.5,N
1608527655.3,286046998.9,N
1608527675.1,286046997.1,N
1608527695.9,286046997.2,N
1608527715.7,286046998.0,N
1608527735.6,286046996.0,N
1608527755.4,286046994.9,Y
1608527775.2,286046999.6,P
1608527795.1,286046996.7,N
1608527796.0,286046996.7,N
1608527815.8,286046999.6,N
1608527835.6,286046996.1,N
1608527855.5,286046995.7,Y
1608527875.3,286047000.0,P
1608527895.2,286047002.3,N
1608527915.9,286047002.3,N
1608527935.7,286047000.6,N
1608527955.6,286047001.0,N
1608527975.4,286046998.8,N
1608527995.3,286046997.8,N
1608528015.1,286046997.2,N
1608528016.0,286046997.2,N
1608528035.8,286046995.0,N
1608528055.7,286046995.6,N
1608528075.5,286046998.0,N
1608528095.3,286046996.9,N
1608528115.2,286046996.6,N
1608528135.0,286046999.3,N
1608528135.9,286046999.3,N
1608528155.8,286046998.5,N
1608528175.6,286046998.7,N
1608528195.4,286046998.1,N
1608528215.3,286047002.5,N
1608528235.1,286047001.7,N
1608528255.8,286046999.7,N
1608528275.7,286047001.9,N
1608528295.5,286047003.7,N
1608528315.3,286047003.7,N
1608528335.2,286047003.6,N
1608528355.0,286047001.7,N
1608528355.9,286047001.7,N
1608528375.8,286046999.7,N
1608528395.6,286047001.9,N
1608528415.4,286046998.5,N
1608528435.3,286046996.5,N
1608528455.1,286046999.5,N
1608528475.8,286046996.6,N
1608528495.7,286046998.3,N
1608528515.5,286046999.6,N
1608528535.4,286047001.0,N
1608528555.2,286046998.1,N
1608528575.0,286046997.5,N
1608528575.9,286046997.5,N
1608528595.8,286046996.2,N
1608528615.6,286046993.7,N
1608528635.4,286046994.5,N
1608528655.3,286046994.8,N
1608528675.1,286046996.3,N
1608528725.9,286046996.4,E
1608528735.8,286046994.9,N
1608528755.7,286046998.6,P
1608528775.5,286046996.9,N
1608528795.3,286046998.0,N
1608528815.2,286046995.4,Y
1608528835.0,286046999.4,P
1608528835.9,286046999.4,N
1608528855.7,286046999.0,N
1608528875.6,286046997.2,N
1608528895.4,286047000.5,N
1608528915.3,286047001.4,N
1608528935.1,286047000.5,N
1608528936.0,286047000.5,N
1608528955.8,286046996.7,N
1608528975.7,286046993.6,Y
1608528995.5,286046996.4,P
1608529015.3,286046994.1,P
1608529035.2,286046993.8,P
1608529055.0,286046994.4,N
1608529055.9,286046994.4,N
1608529075.8,286046993.2,Y
1608529095.6,286046994.9,P
1608529115.4,286046997.7,P
1608529135.3,286046998.1,N
1608529155.1,286046998.1,N
1608529175.9,286046998.3,N
1608529195.7,286046998.6,N
1608529215.5,286046999.7,N
1608529235.4,286047000.4,N
1608529255.2,286047002.0,N
1608529275.0,286047000.4,N
1608529275.9,286047000.4,N
1608529295.8,286046998.7,N
1608529315.6,286046997.2,N
1608529335.5,286046995.7,N
1608529355.3,286046995.7,N
1608529375.1,286046993.4,Y
1608529395.9,286046997.9,P
1608529415.7,286046996.1,P
1608529435.5,286046998.0,N
1608529455.4,286046996.5,Y
1608529475.2,286047002.7,P
1608529495.1,286047002.5,N
1608529496.0,286047002.5,N
1608529515.8,286047000.3,N
1608529535.6,286046998.6,N
1608529555.5,286046998.1,N
1608529575.3,286046998.9,N
1608529595.1,286047000.6,N
1608529615.9,286046998.2,N
1608529635